When you browse on this site, cookies collect data to enhance your experience and personalize the content and advertising you see.
Visit our Privacy Policy to learn more. By continuing to use the site, you agree to this use of cookies and data.
  • In Deutschland
  • Länderverzeichnis
  • Für 7 Tage
  • Wassertemperatur
  • Satellitenkarten
  • Wetterkarte
  • Widgets
  • user-avatar
    Anmelden

    Stündliche Wetter Landsberg am Lech

    Heute, 16 Dezember, Sonntag

    Zeit Temperatur Niederschläge Wind Luftdruck Luftfeuchtigkeit
    00:00 -6°C° 0 mm 2 m/S 707 mmHg 73%
    01:00 -6°C° 0 mm 2 m/S 707 mmHg 70%
    02:00 -6°C° 0 mm 2 m/S 706 mmHg 67%
    03:00 -5°C° 0 mm 2 m/S 706 mmHg 63%
    04:00 -2°C° 0 mm 1 m/S 706 mmHg 59%
    05:00 -2°C° 0.2 mm 1 m/S 705 mmHg 63%
    06:00 -2°C° 0.2 mm 1 m/S 705 mmHg 66%
    07:00 -2°C° 0.2 mm 1 m/S 705 mmHg 70%
    08:00 -1°C° 0.3 mm 1 m/S 705 mmHg 73%
    09:00 0°C° 0.3 mm 1 m/S 705 mmHg 77%
    10:00 -2°C° 0.3 mm 2 m/S 704 mmHg 80%
    11:00 -1°C° 0.2 mm 2 m/S 704 mmHg 83%
    12:00 +1°C° 0.2 mm 2 m/S 704 mmHg 85%
    13:00 +2°C° 0.2 mm 2 m/S 704 mmHg 88%
    14:00 +2°C° 0.1 mm 2 m/S 705 mmHg 90%
    15:00 +2°C° 0.1 mm 2 m/S 705 mmHg 92%
    16:00 +2°C° 0.1 mm 2 m/S 705 mmHg 95%
    17:00 +2°C° 0.1 mm 2 m/S 705 mmHg 95%
    18:00 +3°C° 0.1 mm 1 m/S 705 mmHg 96%
    19:00 +3°C° 0.1 mm 1 m/S 706 mmHg 96%
    20:00 +3°C° 0.2 mm 1 m/S 706 mmHg 96%
    21:00 +2°C° 0.2 mm 1 m/S 706 mmHg 96%
    22:00 +2°C° 0.2 mm 1 m/S 707 mmHg 96%
    23:00 +2°C° 0 mm 1 m/S 707 mmHg 95%

    Morgen, 17 Dezember, Montag

    Zeit Temperatur Niederschläge Wind Luftdruck Luftfeuchtigkeit
    00:00 +1°C° 0 mm 1 m/S 707 mmHg 95%
    01:00 +1°C° 0 mm 1 m/S 707 mmHg 95%
    02:00 +1°C° 0 mm 1 m/S 707 mmHg 94%
    03:00 0°C° 0 mm 1 m/S 707 mmHg 94%
    04:00 0°C° 0 mm 1 m/S 707 mmHg 94%
    05:00 0°C° 0 mm 1 m/S 707 mmHg 94%
    06:00 0°C° 0 mm 1 m/S 708 mmHg 94%
    07:00 0°C° 0 mm 1 m/S 708 mmHg 93%
    08:00 0°C° 0 mm 1 m/S 709 mmHg 92%
    09:00 +1°C° 0 mm 1 m/S 709 mmHg 90%
    10:00 +1°C° 0 mm 2 m/S 710 mmHg 88%
    11:00 +2°C° 0 mm 2 m/S 710 mmHg 86%
    12:00 +3°C° 0 mm 2 m/S 710 mmHg 84%
    13:00 +4°C° 0 mm 2 m/S 711 mmHg 81%
    14:00 +4°C° 0 mm 2 m/S 711 mmHg 85%
    15:00 +2°C° 0 mm 3 m/S 711 mmHg 88%
    16:00 +1°C° 0 mm 3 m/S 712 mmHg 92%
    17:00 +1°C° 0 mm 3 m/S 712 mmHg 92%
    18:00 +1°C° 0 mm 3 m/S 713 mmHg 93%
    19:00 0°C° 0 mm 3 m/S 714 mmHg 93%
    20:00 0°C° 0 mm 3 m/S 714 mmHg 93%
    21:00 0°C° 0 mm 3 m/S 714 mmHg 92%
    22:00 0°C° 0 mm 3 m/S 715 mmHg 92%
    23:00 0°C° 0.1 mm 3 m/S 715 mmHg 92%

    übermorgen, 18 Dezember, Dienstag

    Zeit Temperatur Niederschläge Wind Luftdruck Luftfeuchtigkeit
    00:00 0°C° 0.1 mm 3 m/S 715 mmHg 92%
    01:00 0°C° 0.1 mm 3 m/S 715 mmHg 91%
    02:00 -1°C° 0 mm 2 m/S 715 mmHg 91%
    03:00 -1°C° 0 mm 2 m/S 715 mmHg 91%
    04:00 -2°C° 0 mm 2 m/S 715 mmHg 91%
    05:00 -2°C° 0 mm 2 m/S 715 mmHg 90%
    06:00 0°C° 0 mm 1 m/S 715 mmHg 89%
    07:00 -1°C° 0 mm 1 m/S 715 mmHg 89%
    08:00 0°C° 0 mm 1 m/S 715 mmHg 86%
    09:00 +1°C° 0 mm 1 m/S 715 mmHg 83%
    10:00 +1°C° 0 mm 2 m/S 714 mmHg 81%
    11:00 +2°C° 0 mm 2 m/S 714 mmHg 80%
    12:00 +3°C° 0 mm 2 m/S 713 mmHg 78%
    13:00 +4°C° 0 mm 2 m/S 713 mmHg 77%
    14:00 +3°C° 0 mm 2 m/S 712 mmHg 81%
    15:00 +2°C° 0 mm 2 m/S 712 mmHg 84%
    16:00 +1°C° 0 mm 2 m/S 712 mmHg 87%
    17:00 +1°C° 0 mm 2 m/S 711 mmHg 87%
    18:00 -1°C° 0 mm 2 m/S 711 mmHg 87%
    19:00 -2°C° 0 mm 2 m/S 711 mmHg 86%
    20:00 -2°C° 0 mm 2 m/S 711 mmHg 84%
    21:00 -2°C° 0 mm 2 m/S 710 mmHg 82%
    22:00 -2°C° 0 mm 2 m/S 710 mmHg 80%
    23:00 -2°C° 0 mm 2 m/S 710 mmHg 78%

    19 Dezember, Mittwoch

    Zeit Temperatur Niederschläge Wind Luftdruck Luftfeuchtigkeit
    00:00 -2°C° 0 mm 2 m/S 710 mmHg 76%
    01:00 0°C° 0 mm 1 m/S 710 mmHg 75%
    02:00 0°C° 0 mm 1 m/S 709 mmHg 73%
    03:00 0°C° 0 mm 1 m/S 709 mmHg 71%
    04:00 0°C° 0 mm 1 m/S 709 mmHg 69%
    05:00 +1°C° 0 mm 1 m/S 709 mmHg 68%
    06:00 -1°C° 0 mm 2 m/S 709 mmHg 67%
    07:00 -1°C° 0 mm 2 m/S 709 mmHg 66%
    08:00 +1°C° 0 mm 2 m/S 709 mmHg 65%
    09:00 +3°C° 0 mm 1 m/S 709 mmHg 63%
    10:00 +3°C° 0 mm 1 m/S 709 mmHg 62%
    11:00 +4°C° 0 mm 1 m/S 708 mmHg 63%
    12:00 +5°C° 0 mm 1 m/S 708 mmHg 64%
    13:00 +5°C° 0 mm 1 m/S 707 mmHg 64%
    14:00 +5°C° 0 mm 1 m/S 707 mmHg 66%
    15:00 +4°C° 0 mm 1 m/S 707 mmHg 67%
    16:00 +3°C° 0 mm 2 m/S 706 mmHg 69%
    17:00 +3°C° 0 mm 1 m/S 706 mmHg 71%
    18:00 +2°C° 0 mm 1 m/S 707 mmHg 73%
    19:00 +2°C° 0 mm 1 m/S 707 mmHg 76%
    20:00 +2°C° 0.1 mm 1 m/S 707 mmHg 78%
    21:00 +1°C° 0.1 mm 1 m/S 707 mmHg 80%
    22:00 +1°C° 0.1 mm 1 m/S 707 mmHg 83%
    23:00 +1°C° 0.1 mm 1 m/S 707 mmHg 84%

    20 Dezember, Donnerstag

    Zeit Temperatur Niederschläge Wind Luftdruck Luftfeuchtigkeit
    00:00 +1°C° 0.1 mm 1 m/S 707 mmHg 86%
    01:00 +1°C° 0.1 mm 1 m/S 707 mmHg 88%
    02:00 +1°C° 0.4 mm 1 m/S 707 mmHg 89%
    03:00 +1°C° 0.4 mm 1 m/S 707 mmHg 90%
    04:00 +1°C° 0.4 mm 2 m/S 707 mmHg 91%
    05:00 +1°C° 0.7 mm 2 m/S 707 mmHg 92%
    06:00 +1°C° 0.7 mm 2 m/S 707 mmHg 94%
    07:00 +1°C° 0.7 mm 2 m/S 707 mmHg 95%
    08:00 +1°C° 0.8 mm 2 m/S 707 mmHg 95%
    09:00 +1°C° 0.8 mm 2 m/S 708 mmHg 96%
    10:00 +2°C° 0.8 mm 2 m/S 708 mmHg 96%
    11:00 +2°C° 0.9 mm 2 m/S 708 mmHg 97%
    12:00 +2°C° 0.9 mm 2 m/S 708 mmHg 97%
    13:00 +1°C° 0.9 mm 3 m/S 708 mmHg 97%
    14:00 +1°C° 1 mm 3 m/S 709 mmHg 97%
    15:00 +1°C° 1 mm 3 m/S 709 mmHg 98%
    16:00 +1°C° 1 mm 3 m/S 709 mmHg 98%
    17:00 +1°C° 0.6 mm 3 m/S 710 mmHg 97%
    18:00 0°C° 0.6 mm 3 m/S 710 mmHg 97%
    19:00 0°C° 0.6 mm 3 m/S 710 mmHg 96%
    20:00 0°C° 0.2 mm 3 m/S 711 mmHg 95%
    21:00 -1°C° 0.2 mm 3 m/S 711 mmHg 95%
    22:00 -1°C° 0.2 mm 3 m/S 711 mmHg 94%
    23:00 -1°C° 0 mm 3 m/S 711 mmHg 93%

    21 Dezember, Freitag

    Zeit Temperatur Niederschläge Wind Luftdruck Luftfeuchtigkeit
    00:00 -2°C° 0 mm 3 m/S 712 mmHg 93%
    01:00 -2°C° 0 mm 3 m/S 712 mmHg 93%
    02:00 -4°C° 0 mm 3 m/S 712 mmHg 92%
    03:00 -4°C° 0 mm 3 m/S 712 mmHg 91%
    04:00 -4°C° 0 mm 3 m/S 712 mmHg 90%
    05:00 -4°C° 0 mm 3 m/S 712 mmHg 89%
    06:00 -4°C° 0 mm 3 m/S 712 mmHg 87%
    07:00 -4°C° 0 mm 3 m/S 712 mmHg 86%
    08:00 -2°C° 0 mm 3 m/S 712 mmHg 85%
    09:00 -1°C° 0 mm 3 m/S 712 mmHg 84%
    10:00 0°C° 0 mm 3 m/S 712 mmHg 83%
    11:00 +2°C° 0 mm 2 m/S 711 mmHg 85%
    12:00 +2°C° 0 mm 2 m/S 711 mmHg 87%
    13:00 +3°C° 0 mm 2 m/S 710 mmHg 88%
    14:00 +3°C° 0 mm 2 m/S 710 mmHg 87%
    15:00 +2°C° 0 mm 2 m/S 709 mmHg 86%
    16:00 +2°C° 0 mm 2 m/S 709 mmHg 85%
    17:00 +2°C° 0.1 mm 2 m/S 709 mmHg 85%
    18:00 +2°C° 0.1 mm 2 m/S 709 mmHg 84%
    19:00 +2°C° 0.1 mm 2 m/S 709 mmHg 83%
    20:00 +2°C° 0.6 mm 2 m/S 708 mmHg 85%
    21:00 +1°C° 0.6 mm 3 m/S 708 mmHg 87%
    22:00 +1°C° 0.6 mm 3 m/S 708 mmHg 88%
    23:00 +2°C° 0.5 mm 3 m/S 708 mmHg 89%
    Mehr zeigen